Theta_e
315 315 315 314 314 314 315 316 317 318 319 319 320 320 320 320 320 320 319 318 317 316 314 312 312 313 313 313 313 314 314 316 316 317 318 322 328 330 330 330 330 336 344 347 345 346 347 350 351 350 351 350 349 349 351 356 355 355 364 367 357 357 361 356 358 360 356 355 354 351 348 353 355 345 343 344 345 345 345 343 343 343 343 345 347 348 348 348
315 315 315 315 315 315 316 316 317 318 318 319 320 320 320 321 321 320 320 318 317 316 315 313 312 313 313 314 314 313 314 315 316 317 318 323 327 328 330 330 326 330 341 346 346 346 345 347 348 349 350 350 350 350 351 355 354 357 365 365 358 360 360 354 355 356 353 354 354 353 348 352 355 347 343 345 344 344 344 343 343 345 345 346 346 347 348 347
317 316 316 315 315 316 316 316 317 318 318 319 320 320 320 320 319 317 317 316 316 316 314 313 312 313 313 313 314 313 315 316 318 320 320 323 325 324 329 331 328 332 340 342 343 345 345 345 346 348 350 349 350 352 353 356 357 356 359 364 362 358 355 351 353 353 350 352 354 352 347 349 351 346 345 345 345 346 345 344 344 345 345 346 347 346 347 347
319 318 317 316 316 316 316 317 317 318 319 320 320 321 321 317 313 312 313 314 315 314 313 312 312 313 313 313 314 314 315 319 325 328 327 325 326 323 329 335 335 336 339 338 339 342 344 343 343 347 349 349 350 352 354 356 357 356 359 365 359 353 356 354 351 351 347 349 351 348 349 352 349 346 345 344 349 350 345 345 345 344 346 346 346 346 347 347
320 320 319 317 316 316 316 317 317 318 319 320 321 321 320 315 312 312 312 313 313 313 312 312 312 312 313 313 313 314 317 328 332 333 332 328 325 324 332 341 341 340 340 340 337 338 341 339 341 347 349 349 352 356 356 353 355 358 359 360 354 352 360 356 350 350 347 347 347 348 356 357 349 346 344 346 350 350 345 345 346 344 345 346 346 347 347 347
320 320 320 319 317 317 317 317 317 318 320 320 321 321 319 315 314 313 312 313 312 312 313 312 312 312 313 313 313 314 319 332 334 332 332 329 326 324 332 341 342 343 343 341 338 337 338 336 339 345 347 349 353 359 357 350 354 362 360 354 352 353 356 353 350 351 347 346 347 351 357 352 350 351 345 346 347 346 345 345 346 345 344 345 346 346 347 347
318 319 320 320 319 317 317 317 318 318 320 321 321 321 320 317 318 319 317 317 317 317 317 316 314 313 313 312 314 314 315 325 331 332 332 328 325 321 328 338 342 344 345 343 341 338 336 335 337 339 343 349 351 355 354 352 353 364 365 355 353 353 352 350 350 351 346 347 348 350 354 350 353 356 347 345 345 345 345 345 345 344 344 345 345 345 346 347
317 317 318 319 319 319 317 317 317 318 319 321 321 321 321 319 320 322 322 321 321 321 321 320 320 317 314 313 314 315 315 320 325 330 332 329 325 320 323 334 341 345 345 342 338 338 335 334 335 335 343 350 351 352 353 355 354 361 366 356 352 353 351 349 350 350 348 348 349 351 356 352 350 353 348 344 345 345 345 345 345 344 344 344 345 345 345 346
318 318 317 317 318 318 318 318 317 317 318 320 321 321 321 321 319 321 322 322 321 321 321 321 322 321 317 314 314 317 321 324 325 328 331 332 327 320 320 328 338 344 344 338 333 335 333 333 334 337 346 348 349 353 353 359 359 358 360 354 352 353 351 350 350 350 350 349 349 358 361 352 347 350 349 344 344 345 344 344 344 344 344 344 345 345 345 346
318 319 318 318 317 317 317 318 317 317 317 318 321 321 321 321 321 321 321 321 322 321 321 321 322 322 321 318 318 322 328 329 330 331 332 333 328 322 320 322 334 345 342 335 332 333 332 331 331 334 344 348 351 354 353 358 359 352 353 353 352 352 350 351 353 351 351 351 351 362 364 350 346 353 354 347 343 344 344 344 344 344 344 344 345 345 345 346
316 317 318 319 318 317 316 317 317 317 316 317 319 321 322 321 321 321 321 321 321 321 321 321 321 322 323 322 321 325 331 332 333 334 332 332 328 324 321 321 333 344 341 336 332 331 331 329 329 332 340 346 349 351 351 351 350 349 351 356 355 353 352 352 354 353 354 357 353 359 362 351 349 356 358 349 345 345 344 344 344 344 345 344 345 345 346 346
313 314 315 317 318 319 318 316 316 317 317 316 317 319 321 321 320 321 321 321 321 321 321 320 320 322 325 324 321 324 331 333 334 334 332 332 330 325 321 321 332 341 338 333 331 329 329 328 329 332 334 341 347 350 350 348 349 351 353 362 362 357 359 357 354 355 358 360 355 355 357 356 357 358 354 349 348 346 343 345 344 344 345 345 346 345 345 346
312 313 313 314 315 317 319 318 316 316 317 316 316 317 319 320 320 320 321 321 321 321 321 321 319 322 326 325 323 324 329 331 333 333 332 331 331 327 324 324 329 334 333 330 330 329 328 327 328 330 331 338 347 349 350 350 352 355 356 365 367 361 367 363 356 358 359 357 354 353 355 361 363 354 350 350 349 345 344 344 344 345 346 345 345 346 346 346
315 314 314 314 314 315 317 318 317 316 316 317 316 316 317 319 320 320 320 321 321 321 322 321 319 323 326 326 326 329 327 328 331 331 332 331 331 329 329 329 328 329 329 328 329 328 327 327 328 329 329 334 341 345 351 352 355 361 357 360 366 363 369 365 357 360 361 356 354 354 358 366 366 352 348 352 348 345 344 344 344 346 346 346 345 346 346 345
319 318 316 315 314 314 315 317 319 317 315 317 317 316 316 317 319 319 320 320 321 321 321 321 322 324 326 325 326 331 330 329 329 330 331 332 330 330 330 331 330 328 328 328 327 327 327 327 327 329 328 330 338 345 351 352 354 360 356 354 357 358 364 365 358 359 362 360 356 355 360 368 365 352 348 351 348 344 344 344 345 346 346 346 346 346 345 345
321 320 319 317 315 315 315 315 318 318 316 316 317 317 316 317 318 319 320 320 320 321 321 322 323 324 327 328 326 329 332 331 330 330 331 332 330 329 329 330 330 330 329 327 326 326 326 326 327 328 328 329 334 341 348 348 348 354 353 351 351 352 359 363 360 358 359 360 358 356 362 368 363 353 349 350 347 345 345 345 345 345 345 346 346 346 345 346
322 322 321 320 318 316 315 315 316 318 318 316 317 317 317 317 317 318 319 319 320 321 321 323 322 322 327 329 326 328 332 331 331 330 330 330 328 328 329 329 329 329 329 327 326 326 326 325 326 327 328 329 329 335 344 343 343 347 347 347 350 351 355 360 362 359 357 359 360 359 363 368 364 355 351 349 346 344 344 345 345 344 345 346 346 345 345 346
322 322 322 321 321 318 316 315 316 318 318 317 316 317 317 317 318 322 324 322 322 323 324 324 322 322 326 325 325 329 330 331 331 329 327 326 326 327 328 328 328 328 328 327 326 326 326 324 326 327 329 329 328 332 336 337 340 343 345 344 346 350 352 357 362 361 360 361 360 359 360 365 365 357 351 348 346 345 344 345 345 343 345 346 346 346 345 346
322 323 322 322 322 321 318 316 315 317 319 318 316 317 317 317 322 330 329 325 326 327 328 326 323 325 327 326 326 327 328 330 330 328 326 325 326 327 327 327 326 326 325 325 325 325 325 324 325 327 328 328 329 329 330 334 337 342 348 346 349 354 354 358 363 360 359 361 362 361 360 362 362 358 352 348 346 345 344 346 344 344 345 345 346 346 345 346
322 322 322 322 322 322 319 317 316 317 318 318 316 316 318 318 324 330 326 323 325 326 326 325 324 325 326 325 326 326 327 329 330 326 325 326 326 326 325 325 325 325 324 324 325 324 324 325 325 326 328 328 328 328 329 330 331 340 347 347 352 357 354 357 363 360 357 359 361 361 360 361 361 358 352 347 348 349 347 347 346 345 345 345 345 345 345 346
321 322 322 322 322 321 320 318 316 316 318 318 317 318 318 319 322 325 323 322 323 322 322 323 324 324 324 325 325 326 326 327 327 325 325 326 326 325 325 325 325 325 325 323 323 324 324 325 325 326 327 328 328 328 328 328 329 338 344 345 348 353 356 358 362 360 357 357 360 360 360 360 358 356 351 348 351 352 349 348 347 347 346 345 345 345 345 346
320 322 322 322 321 319 319 318 316 316 318 319 318 320 321 321 323 323 322 321 322 322 322 321 322 323 323 324 325 325 326 326 324 323 324 325 324 324 324 325 326 326 325 323 323 324 324 324 325 325 326 326 327 327 327 327 331 337 337 337 338 344 352 353 358 362 357 355 360 360 359 360 358 354 350 349 351 351 349 349 349 348 347 346 345 345 345 346
319 322 321 321 320 317 317 318 317 317 319 319 320 321 322 322 323 323 322 322 322 321 321 321 322 322 322 324 324 325 327 326 324 323 324 323 324 324 323 324 325 325 325 324 324 323 322 324 325 324 325 326 327 328 327 326 331 339 335 329 330 341 351 347 353 362 357 354 360 359 359 364 361 355 353 351 349 350 350 349 350 350 348 346 345 345 345 346
318 321 320 319 319 317 316 318 317 317 319 321 321 321 322 323 323 322 321 321 321 321 321 322 322 321 322 324 324 326 328 326 325 324 323 323 324 324 323 323 324 324 324 324 325 323 322 324 324 324 326 328 327 327 328 325 330 340 339 330 331 345 353 347 352 360 356 351 357 358 356 363 363 357 358 356 350 350 351 350 350 349 348 346 345 345 345 346
317 320 320 317 316 317 316 317 318 317 319 322 321 321 322 322 322 322 321 323 324 324 323 323 323 322 322 324 326 327 328 326 325 325 324 324 323 323 323 323 323 324 324 324 324 324 323 324 323 324 326 326 326 325 327 326 327 330 334 332 332 338 344 348 354 356 349 345 354 356 347 352 365 363 361 359 356 355 351 349 350 349 347 346 345 345 345 345
317 319 319 315 314 316 317 317 319 318 319 320 320 321 321 322 322 320 322 325 325 325 325 325 324 323 323 325 326 326 326 326 326 325 325 325 324 324 324 324 325 325 325 324 323 324 324 323 323 323 324 325 325 324 325 327 323 322 328 331 329 328 333 345 351 348 344 345 354 353 344 347 358 360 361 362 360 359 355 351 350 348 347 346 344 345 345 345
319 320 319 315 312 314 316 315 316 316 317 317 318 320 320 322 322 320 324 327 327 327 325 324 324 324 325 326 326 326 324 325 326 325 325 325 324 324 325 326 325 324 325 323 320 323 326 325 324 323 324 324 324 323 325 327 322 323 333 330 325 326 332 345 350 345 346 349 349 351 351 351 354 356 360 363 362 360 360 358 353 349 347 346 344 344 345 345
319 319 318 316 312 312 314 314 314 314 315 316 318 318 319 321 320 321 326 325 329 328 324 323 324 324 325 326 327 326 325 325 325 324 325 325 324 323 324 326 325 325 326 322 319 322 325 325 324 325 324 322 325 326 326 326 322 326 333 326 324 330 337 347 347 342 347 344 339 346 348 345 351 360 359 359 362 361 360 361 356 350 348 346 345 344 345 345
318 317 318 317 314 312 313 314 314 313 314 318 317 316 319 320 320 325 327 325 327 326 325 324 324 324 324 325 325 325 325 325 325 325 325 324 324 324 323 324 324 324 324 322 321 323 323 324 325 325 324 323 326 327 326 325 323 325 326 325 331 337 339 345 346 346 347 337 333 343 343 337 346 359 357 354 360 361 360 359 354 350 349 346 345 344 345 346
316 316 316 318 316 314 313 315 314 315 318 318 317 316 318 320 326 327 321 322 326 326 325 324 324 324 324 324 324 325 324 324 325 325 323 324 324 323 323 323 323 323 324 323 323 323 322 324 324 324 325 325 326 325 323 323 324 325 325 328 338 345 349 357 362 357 342 335 341 348 347 341 343 355 359 357 361 362 359 358 353 350 349 347 345 344 345 346
316 315 315 317 317 314 315 316 313 315 320 321 319 319 319 324 330 325 320 322 324 325 324 324 325 325 324 325 325 325 325 324 325 323 323 325 324 322 322 323 323 323 324 323 322 324 324 323 324 325 325 324 324 325 324 324 324 325 331 338 342 346 350 355 359 353 335 334 348 352 345 340 340 352 361 358 359 360 358 360 357 351 349 347 345 345 348 348
316 316 316 317 317 316 316 315 311 313 320 322 319 320 325 325 323 322 324 323 321 325 326 325 326 325 324 325 325 325 325 325 324 324 324 325 324 323 322 325 325 320 320 323 322 323 325 324 324 324 325 325 323 324 325 327 328 326 333 342 343 341 342 342 343 341 335 336 343 345 342 340 343 354 361 358 357 356 355 355 353 351 349 347 345 346 350 349
317 318 319 319 319 318 316 314 311 311 319 321 318 322 329 326 322 322 323 320 320 325 326 324 326 326 324 325 325 325 324 325 325 324 324 324 324 324 321 324 327 321 321 323 319 318 321 323 324 323 324 325 323 323 323 324 327 323 326 335 340 340 337 337 338 337 337 340 341 343 343 340 343 351 357 359 356 352 351 350 351 351 349 346 345 348 349 348
319 320 321 321 319 316 314 313 311 311 317 319 319 324 325 322 324 326 321 319 321 322 322 323 326 325 325 325 325 325 324 324 325 324 325 324 323 323 322 322 323 323 323 321 319 318 317 320 325 324 323 324 324 325 324 325 328 325 328 333 337 342 341 339 341 340 336 338 339 339 340 339 342 351 355 352 348 348 350 350 351 351 349 347 346 348 348 346
320 321 320 319 316 315 317 317 314 311 315 319 323 327 322 319 324 325 322 322 321 322 323 324 325 325 325 325 325 325 324 323 325 324 324 324 323 324 324 322 322 323 321 320 322 321 316 318 325 324 323 324 323 324 324 326 330 331 334 333 332 341 347 341 341 341 336 336 337 336 338 344 350 355 353 347 346 350 350 349 351 349 348 347 347 349 349 347
321 320 319 319 317 319 320 318 313 310 313 320 324 324 321 321 324 324 325 325 322 323 324 324 325 323 322 324 325 325 325 325 325 324 323 324 323 323 324 324 323 322 322 323 324 320 317 321 326 323 322 324 323 323 324 326 331 336 333 332 334 339 344 338 335 341 339 332 334 338 341 346 348 350 350 348 351 353 349 349 350 349 349 348 347 349 350 349
321 320 322 324 322 322 323 316 311 310 314 322 327 326 323 322 323 323 324 324 323 325 324 323 324 323 320 321 323 325 325 324 324 323 322 323 323 323 325 324 323 323 323 323 324 322 320 321 327 325 321 324 323 322 326 327 333 337 330 333 339 335 339 337 331 337 338 329 332 339 340 340 340 345 351 351 352 353 352 351 349 348 350 350 350 349 349 350
320 321 325 328 325 325 326 317 310 312 318 326 333 334 329 324 323 322 323 324 324 325 323 322 324 324 321 320 322 325 324 321 322 323 321 321 324 324 324 324 324 324 323 322 323 326 322 318 326 328 321 323 326 322 325 326 329 335 332 336 340 333 336 335 327 332 334 329 333 336 337 340 341 344 347 348 352 355 354 353 350 349 350 349 350 350 349 349
318 321 326 329 328 327 325 317 314 318 324 329 333 332 328 325 324 323 323 324 323 323 324 323 324 325 324 322 322 324 323 321 322 322 321 321 323 325 324 325 324 323 323 322 323 327 326 321 324 329 324 325 328 326 325 324 327 331 328 332 337 337 339 334 329 331 330 330 336 334 333 342 350 352 349 347 354 356 353 355 353 349 348 349 349 349 348 347
318 322 327 330 329 327 323 318 320 325 329 332 331 327 324 322 323 322 323 324 323 324 325 325 324 324 325 324 324 324 324 323 323 323 322 322 323 323 323 324 325 325 323 322 324 326 326 322 321 327 327 324 324 326 328 328 327 326 326 326 327 330 333 330 329 330 328 332 338 336 336 348 361 361 352 349 353 354 354 359 356 349 348 350 348 348 348 347
316 323 329 330 329 327 324 323 325 328 331 331 328 325 323 322 323 323 323 323 324 324 325 325 325 325 325 325 324 324 324 324 324 325 324 322 321 322 324 324 324 325 323 323 324 324 324 326 325 325 323 321 325 329 330 331 330 328 329 328 326 328 328 326 328 330 329 332 336 336 338 347 358 357 355 357 358 353 353 354 353 349 348 350 350 349 349 348
313 319 327 329 328 327 325 327 328 326 328 328 325 324 323 323 324 324 323 324 324 324 324 325 325 325 325 325 325 325 324 324 325 325 325 324 322 323 325 324 324 324 325 325 324 324 329 331 325 324 329 328 327 328 326 326 330 330 329 331 331 332 330 325 325 329 329 328 334 340 341 347 358 358 358 361 355 349 349 349 348 348 347 349 350 350 350 350
311 316 323 325 326 326 326 329 330 328 326 326 324 324 323 323 324 323 324 324 324 324 324 324 325 325 325 325 325 325 323 323 324 326 325 325 324 325 324 323 324 325 325 324 324 327 331 328 322 327 344 348 335 331 332 330 330 328 327 332 332 329 332 332 331 337 333 325 331 343 345 351 361 358 351 349 348 347 348 347 347 348 348 348 349 351 352 351
312 316 323 325 324 324 326 329 331 329 327 324 324 324 324 324 324 324 325 325 325 325 325 325 325 324 324 325 324 324 324 322 324 325 324 325 325 324 324 324 323 324 326 327 329 328 325 329 329 324 328 335 331 326 331 333 331 330 330 333 331 330 333 331 332 341 336 324 331 346 348 351 359 357 350 349 350 349 346 346 347 347 348 347 347 350 350 351
315 320 324 326 325 323 325 328 327 326 325 324 324 324 323 324 324 325 325 325 325 325 324 325 324 323 324 324 323 324 324 323 323 324 325 325 324 324 324 325 324 325 327 326 328 331 329 334 343 332 322 325 329 328 331 333 330 331 333 332 329 330 330 327 330 336 332 328 337 346 346 348 351 354 355 354 354 353 347 345 346 346 345 342 341 343 343 344
319 325 326 326 326 324 324 326 325 325 325 325 325 324 323 323 324 325 326 325 325 325 324 325 324 323 323 323 323 324 323 323 323 324 326 324 323 325 324 324 325 327 332 328 324 335 339 338 354 360 340 335 348 353 348 338 330 327 330 331 330 330 334 335 332 331 333 335 338 343 344 343 344 350 355 354 354 356 352 345 344 344 340 338 339 340 339 342
322 328 326 325 327 326 326 326 325 325 326 325 325 324 323 324 326 327 327 325 325 325 324 325 324 323 324 323 323 323 324 326 325 323 324 324 324 325 323 325 326 328 336 333 323 334 340 328 339 359 344 335 355 361 345 334 331 327 328 330 331 331 332 334 329 330 338 334 331 344 351 341 340 348 351 350 352 354 351 346 344 344 341 342 345 346 347 349
324 327 324 323 326 328 328 328 326 325 325 325 325 324 323 324 326 328 328 326 326 325 324 326 325 323 324 323 322 325 326 327 328 327 326 326 326 325 326 325 325 327 331 329 328 338 338 326 327 337 332 331 340 339 333 332 333 331 330 331 333 332 328 330 331 335 341 334 332 347 352 343 343 347 345 346 349 350 349 346 344 345 346 348 350 351 353 353
322 324 322 322 324 324 324 325 325 325 325 325 328 327 324 324 325 326 327 328 328 326 323 325 326 324 325 324 322 326 327 325 327 330 330 329 329 328 329 329 328 329 329 327 330 331 329 333 336 328 324 330 330 326 330 334 330 330 331 331 333 333 330 329 331 334 340 343 345 351 350 347 351 351 344 342 344 347 348 346 347 348 348 351 353 353 354 353
320 321 321 321 321 322 322 324 323 323 323 324 327 326 322 323 324 324 325 326 327 328 325 325 326 325 326 327 326 327 330 329 329 331 332 332 333 331 331 331 330 330 330 329 331 327 323 334 344 331 323 329 332 327 330 332 331 330 330 330 330 329 329 329 330 334 340 344 347 349 346 345 347 345 343 343 345 350 350 348 351 351 351 352 353 353 354 353
316 317 319 320 322 323 322 322 321 322 324 324 324 325 324 325 325 324 325 325 324 326 325 324 327 329 330 333 332 330 331 332 332 331 330 331 332 330 331 331 330 331 332 330 331 333 328 330 338 330 320 325 333 328 326 329 331 327 326 330 330 326 330 332 332 337 341 340 342 344 341 342 343 341 342 345 348 350 350 350 351 351 351 352 350 350 351 351
313 314 317 319 323 324 321 322 322 322 326 326 324 325 324 325 326 325 326 327 323 322 323 323 326 332 334 334 332 330 329 330 330 329 329 330 330 329 329 329 327 328 332 332 333 337 332 327 332 328 322 327 333 327 326 328 324 324 331 336 333 331 334 335 334 338 339 338 340 343 341 343 345 343 346 349 349 348 349 350 350 350 351 351 348 349 349 349
Wind_Speed
13 14 14 14 14 14 14 14 13 13 13 13 13 13 14 14 13 12 11 10 10 11 9 8 7 6 5 5 4 4 4 5 5 5 4 9 12 11 11 9 7 6 8 11 11 11 11 10 11 11 12 7 3 1 4 6 6 4 2 3 4 3 3 3 4 4 2 2 5 9 10 7 4 6 5 12 15 22 20 16 18 14 18 24 24 29 29 28
15 15 15 15 15 14 14 13 13 13 13 14 14 14 15 15 15 13 11 10 9 10 9 8 7 6 5 5 5 5 4 5 6 6 3 9 11 10 11 10 7 7 8 10 12 12 11 10 12 13 13 8 4 2 5 6 6 3 2 3 2 4 5 5 7 7 5 4 5 7 9 7 6 9 2 5 9 18 14 14 20 21 23 25 28 31 29 29
16 16 16 15 15 14 14 14 14 14 14 14 14 16 17 16 15 13 10 8 8 9 9 8 7 6 6 5 6 6 4 5 6 2 3 7 9 9 10 11 9 9 8 7 9 11 9 7 11 15 13 8 5 4 4 5 5 2 3 3 3 5 5 9 12 10 9 6 4 4 9 9 9 10 3 7 13 14 12 16 22 24 29 31 32 32 31 31
16 16 16 15 15 15 14 14 14 14 14 14 15 17 18 17 15 12 9 7 7 7 7 7 7 6 5 5 5 5 4 3 1 5 4 4 7 8 10 11 10 9 8 7 8 10 9 7 11 15 12 7 6 6 3 7 6 1 3 2 5 9 5 10 14 10 9 4 1 3 7 8 10 10 3 11 14 5 11 24 27 29 33 35 35 34 33 31
17 16 16 15 15 15 15 14 14 14 14 14 15 17 17 17 15 12 8 6 5 5 6 7 6 6 5 5 5 4 3 2 3 5 4 3 6 7 10 11 10 9 8 9 11 12 13 10 11 14 10 4 4 4 3 9 7 2 1 1 6 9 3 8 12 8 7 3 0 3 4 6 9 6 2 7 10 5 14 26 32 35 35 35 36 34 33 31
16 16 16 15 15 14 14 14 15 14 14 14 15 16 16 15 15 12 10 8 7 6 7 7 7 6 5 5 4 3 0 1 3 5 3 2 4 7 8 10 10 9 9 10 12 13 13 11 11 14 9 4 5 4 4 9 7 2 2 1 5 6 1 7 11 8 8 6 3 1 3 7 9 3 3 1 9 14 22 28 33 35 33 34 33 32 32 31
16 16 16 16 15 14 14 14 14 14 14 14 14 15 15 13 12 12 11 10 9 9 9 9 8 7 6 5 4 3 5 3 4 5 2 3 2 5 6 8 10 10 11 10 12 12 10 10 12 14 9 4 6 5 5 9 6 2 3 3 5 5 4 9 12 11 11 8 5 2 3 6 5 2 4 2 8 18 26 29 32 32 32 32 31 31 31 29
16 16 16 16 15 15 14 13 14 14 14 13 13 14 14 12 10 10 10 10 10 10 10 10 10 9 7 5 2 3 6 4 5 3 0 2 2 3 6 8 10 10 10 8 9 9 9 9 13 14 7 4 7 6 8 8 3 3 3 5 6 5 6 8 9 10 11 8 5 2 3 2 4 6 6 3 4 15 28 29 31 32 31 31 29 29 29 27
16 16 16 15 15 15 14 13 13 13 13 13 13 13 13 12 10 9 9 9 9 9 9 9 10 10 8 5 3 3 3 4 6 4 1 1 1 4 7 9 9 9 10 6 6 8 9 8 7 10 8 6 10 9 11 8 2 6 6 10 8 5 8 9 7 8 9 8 4 1 1 4 5 3 5 5 5 15 30 31 32 31 30 29 27 28 28 26
17 16 16 16 15 15 14 14 12 12 12 12 12 12 12 12 11 10 9 9 9 9 10 10 10 11 9 6 3 1 3 4 4 2 1 3 2 5 7 9 9 10 11 6 6 8 9 10 11 3 10 11 12 11 13 7 4 10 10 12 8 5 9 9 8 9 8 7 5 4 2 5 5 1 4 1 9 17 28 31 31 31 30 29 26 27 27 25
17 17 17 16 16 15 14 14 13 12 11 11 12 12 12 12 11 11 10 10 9 10 11 11 11 12 11 7 3 3 4 3 2 1 3 2 2 5 8 10 10 11 12 9 8 8 11 14 16 5 8 9 10 11 12 7 8 16 13 8 4 3 4 7 8 9 7 5 8 8 2 3 2 2 4 4 7 13 25 30 30 29 29 28 26 26 26 25
17 17 17 17 17 16 15 14 13 12 11 11 11 12 12 11 11 11 11 11 11 11 12 12 12 13 14 11 7 5 4 3 1 3 4 2 1 4 8 10 10 10 11 10 9 8 12 12 13 7 3 8 8 5 10 10 11 16 12 5 3 3 1 7 8 8 8 4 10 10 2 2 2 4 7 1 1 11 24 26 27 28 27 27 25 26 26 24
18 18 17 17 17 17 17 15 14 13 12 11 11 12 12 12 12 12 12 12 12 12 13 12 13 13 14 10 4 6 6 4 4 5 6 5 3 3 7 8 10 10 9 9 9 8 10 10 11 10 4 6 9 4 7 10 12 10 4 2 3 4 4 8 8 7 7 4 11 11 2 4 5 10 11 3 1 12 24 20 22 27 26 27 25 26 26 23
20 19 19 18 17 17 17 17 16 13 12 11 11 12 13 12 12 12 12 13 13 13 13 12 12 12 12 7 4 8 10 8 10 11 9 8 7 3 5 6 7 8 7 8 10 9 9 11 11 11 9 5 8 6 7 8 7 5 1 1 3 1 3 5 7 8 5 4 11 8 0 5 6 13 12 6 4 15 27 18 18 26 26 27 26 26 26 24
21 21 20 19 18 17 17 17 17 15 13 11 11 12 13 13 13 12 13 13 13 13 13 12 11 11 12 9 4 6 10 12 15 14 11 11 9 6 6 6 6 6 5 8 10 10 11 12 11 10 10 7 5 7 7 3 1 2 2 1 1 3 2 2 4 10 6 2 7 5 0 5 5 13 14 10 9 17 24 14 15 24 24 26 26 25 26 25
22 22 21 19 19 17 17 17 17 16 13 12 11 12 14 13 12 13 13 14 14 13 12 11 10 9 9 6 5 6 10 13 15 13 12 12 11 10 8 7 9 9 8 8 8 9 9 10 12 11 10 6 3 5 4 2 1 2 3 3 2 4 2 2 3 11 9 3 4 4 2 3 5 10 14 14 13 18 19 9 11 19 22 28 27 25 27 26
22 22 21 20 19 18 18 17 17 17 14 12 12 11 12 13 13 14 15 15 15 13 13 11 10 10 8 7 6 6 11 13 14 15 14 13 12 11 10 11 12 13 13 11 10 10 9 9 9 8 6 2 3 4 3 3 4 3 3 2 3 5 4 2 2 8 10 4 5 5 3 4 5 7 14 17 18 21 20 10 10 15 18 28 29 26 27 26
22 22 22 21 20 18 18 17 16 16 14 13 12 12 12 11 13 14 13 14 15 13 11 9 7 5 6 9 7 7 9 12 13 14 12 12 11 10 12 14 12 13 14 12 12 13 11 8 5 2 3 1 2 5 4 6 5 4 5 4 3 4 4 5 3 7 11 6 6 6 5 8 7 5 11 16 19 24 21 13 17 17 14 24 29 27 28 27
21 22 22 21 20 18 17 17 16 15 14 11 10 12 11 10 12 8 6 9 10 8 6 6 7 2 5 11 11 13 11 9 10 12 11 11 11 9 10 13 12 11 10 5 7 11 9 5 3 1 3 4 4 5 7 9 7 8 9 5 4 4 3 5 3 7 13 7 5 8 7 8 7 5 8 13 17 21 19 16 22 20 15 24 29 26 28 27
21 22 22 21 20 18 17 16 15 14 13 11 9 9 7 8 6 3 9 15 15 12 12 15 15 14 17 20 19 14 7 9 12 12 12 11 11 10 9 9 9 7 5 3 4 7 9 4 4 4 6 8 9 9 11 11 8 8 8 4 5 6 3 3 3 7 12 8 6 10 7 6 6 5 8 13 14 14 15 16 20 19 17 25 26 24 27 28
21 22 22 22 20 19 16 14 14 12 12 11 9 7 6 7 5 6 15 20 19 17 18 22 21 23 25 26 22 12 6 11 14 12 10 11 11 9 8 7 4 3 5 7 5 4 6 5 7 9 11 12 13 11 11 11 8 8 7 5 4 5 4 5 5 8 11 6 5 7 5 7 6 5 8 12 10 8 12 14 15 17 18 22 22 23 26 28
20 21 23 22 20 19 16 13 11 11 11 8 6 8 11 13 10 12 15 15 23 23 21 23 24 26 28 26 22 17 11 9 11 12 12 12 12 9 8 7 4 3 5 6 5 2 2 5 11 13 11 10 11 10 8 9 8 7 5 6 4 3 2 2 3 7 9 4 3 6 6 7 5 4 8 9 9 8 11 13 13 16 16 16 20 24 26 27
20 21 22 22 20 19 15 12 9 9 9 5 4 9 14 15 11 13 12 11 22 26 21 21 24 26 27 26 21 19 20 13 10 15 16 13 15 14 8 7 6 5 4 4 5 3 3 7 12 12 10 9 9 10 8 6 5 3 3 4 3 4 4 2 3 7 8 3 2 6 4 4 3 2 4 5 8 8 9 11 12 15 15 13 17 22 26 28
20 21 22 22 21 18 15 11 8 7 7 4 5 8 12 13 11 14 12 6 12 18 16 15 19 23 25 23 15 15 21 18 12 16 19 16 17 15 9 7 5 4 5 6 7 7 7 12 13 9 8 10 9 11 7 1 1 2 2 4 3 7 8 4 4 6 4 1 2 6 3 5 2 3 3 1 5 7 8 10 10 12 14 12 14 20 23 27
21 21 22 22 21 19 15 10 7 7 7 4 4 5 8 9 9 13 10 4 5 10 11 8 12 19 23 17 13 16 18 18 15 16 22 20 18 13 8 9 6 4 8 8 6 6 9 18 16 7 8 9 7 9 6 3 2 5 3 5 5 9 9 5 9 8 3 2 4 5 4 4 4 3 6 2 3 5 5 7 10 11 13 14 15 19 20 23
21 21 22 22 22 20 14 8 6 8 8 5 3 3 5 5 6 10 5 2 3 6 4 4 8 11 16 15 17 16 10 12 16 17 22 21 19 15 7 6 5 5 8 6 4 3 7 16 16 8 8 7 3 5 5 4 3 3 4 6 5 7 6 9 12 9 4 4 6 4 4 2 4 4 7 4 4 6 4 5 10 12 15 15 18 20 17 20
22 22 22 21 22 21 16 11 9 10 9 8 7 7 6 6 6 7 2 3 4 4 2 5 6 7 12 14 17 14 3 5 12 17 24 22 19 18 9 3 2 4 4 1 2 4 5 10 12 9 7 5 2 3 5 4 5 3 7 4 2 4 5 12 13 7 4 3 2 4 4 2 2 5 5 6 6 6 5 6 8 12 16 17 19 21 16 17
22 22 22 20 20 20 19 16 13 10 9 10 12 11 8 6 5 3 2 2 3 3 3 4 5 6 11 14 21 18 4 3 6 13 26 23 17 14 8 6 4 4 4 1 3 7 3 4 8 8 5 4 5 5 6 4 4 6 8 1 3 3 8 11 10 5 2 4 1 5 3 2 3 5 1 5 5 5 8 8 8 12 16 17 20 22 16 15
22 22 22 20 19 19 19 17 14 11 8 9 10 10 8 5 3 1 4 1 3 1 2 5 5 6 10 13 20 19 8 3 4 12 24 22 16 11 6 10 8 4 6 4 5 8 5 6 8 5 3 4 6 6 6 6 3 6 3 4 6 5 7 7 7 5 2 4 4 7 5 2 3 4 1 3 3 6 8 8 8 13 18 19 21 23 17 12
23 22 22 21 19 18 19 16 12 9 7 7 7 7 6 3 1 4 2 2 3 1 3 5 5 8 11 8 9 13 8 2 7 15 19 17 15 11 6 9 7 3 4 3 5 7 8 12 10 2 5 6 4 5 4 7 7 3 3 6 5 4 4 4 2 4 4 1 5 8 6 4 1 4 3 3 4 6 6 5 7 12 18 20 21 22 16 11
24 22 21 21 19 18 19 14 9 7 7 5 4 5 5 2 3 3 3 3 3 1 2 2 4 8 12 9 5 7 5 1 9 15 11 8 8 6 2 3 4 1 4 5 4 6 6 8 7 5 8 6 2 3 4 2 4 4 4 4 4 4 3 4 4 4 4 2 6 6 3 5 2 4 4 5 6 5 6 7 7 10 16 19 21 21 15 12
25 22 19 19 19 19 18 13 11 10 7 2 2 6 6 2 2 3 3 4 3 3 2 2 3 5 10 9 5 7 5 3 7 10 7 5 4 4 4 3 3 1 3 4 3 6 5 6 5 5 9 6 4 2 5 6 4 5 5 5 5 3 4 3 4 3 1 4 5 2 3 3 2 5 5 6 7 6 8 11 13 15 17 20 24 21 14 14
25 22 19 17 18 19 16 12 11 12 8 4 2 3 5 3 2 6 4 3 2 2 2 1 2 3 8 7 4 7 6 4 7 8 6 6 5 5 5 6 7 5 3 4 1 3 4 7 5 3 5 6 6 3 1 3 2 4 5 5 5 3 2 1 2 2 2 4 5 2 3 1 3 4 4 6 8 9 10 13 19 22 22 24 27 20 14 16
24 22 19 17 17 17 14 11 11 13 12 8 3 3 4 3 5 5 5 6 4 3 4 2 3 5 8 7 6 7 5 4 8 9 6 5 4 4 5 6 7 6 3 2 1 2 2 6 4 4 4 5 6 6 7 4 2 3 4 6 5 4 4 3 3 1 3 3 4 3 2 2 2 3 5 6 8 8 9 12 18 22 23 26 26 20 15 17
24 20 17 16 14 11 9 8 11 14 15 10 4 3 4 5 4 2 4 5 2 3 6 6 4 7 8 6 6 8 7 5 6 7 5 6 6 5 5 5 8 7 4 3 3 4 4 6 7 8 9 9 6 6 7 6 1 3 2 6 2 4 5 2 3 4 3 1 1 1 0 2 3 3 3 2 6 7 9 13 15 17 20 23 24 21 18 17
23 17 13 10 7 3 2 4 8 13 16 11 5 1 5 3 3 2 2 2 1 2 6 9 4 5 6 4 5 9 9 5 6 6 4 6 6 7 6 5 9 10 6 5 3 2 3 5 6 5 8 10 10 9 6 5 3 1 2 3 3 4 6 3 1 1 3 3 1 0 1 1 1 3 4 5 6 5 7 11 15 18 20 23 25 25 22 19
23 17 10 5 2 3 2 1 5 12 16 10 4 4 4 3 4 3 3 6 7 5 4 5 3 2 4 6 6 8 7 3 6 6 4 4 4 7 8 6 9 13 13 10 4 2 4 4 7 5 7 8 13 12 5 5 7 4 1 4 2 2 3 4 1 3 3 2 2 1 2 1 1 1 2 3 6 4 5 8 11 16 21 23 25 28 26 23
25 17 8 5 5 3 2 2 8 14 12 6 1 4 2 3 4 5 7 9 8 5 3 2 4 2 1 3 3 5 5 4 6 6 5 5 4 7 10 7 8 15 18 15 5 2 4 2 8 4 6 5 5 7 2 2 3 5 4 4 3 2 1 1 1 1 1 1 1 2 1 3 3 3 4 5 6 6 7 7 8 11 16 20 23 26 27 25
23 14 5 3 3 3 3 5 12 13 8 3 2 3 3 4 7 12 15 12 7 3 3 4 4 1 2 3 2 3 2 3 5 4 3 4 4 6 11 9 7 14 18 15 8 2 4 3 4 4 5 2 2 3 3 4 4 2 4 2 2 3 3 2 2 3 2 2 1 1 2 3 3 5 6 7 7 7 8 7 7 9 14 18 20 22 24 25
19 11 4 1 1 2 4 9 11 8 3 2 4 3 4 5 8 16 19 14 6 4 4 5 4 4 1 3 1 2 0 2 2 3 1 4 4 4 9 9 7 11 15 15 10 3 2 3 2 4 2 4 1 2 6 7 4 2 3 3 2 1 2 1 1 1 3 3 3 3 2 4 5 4 6 8 7 8 8 7 5 9 14 16 18 20 21 23
16 8 1 4 6 4 5 8 5 2 1 3 3 3 5 7 8 15 22 19 12 9 10 8 6 5 2 1 1 2 1 1 2 3 1 4 5 3 8 13 9 7 8 8 7 5 3 3 3 1 1 4 5 7 8 9 8 6 5 5 4 3 3 2 2 3 1 4 4 4 3 5 5 3 5 7 6 6 9 9 8 11 16 17 17 19 20 22
14 6 3 9 11 9 6 4 2 3 2 3 4 4 7 8 8 13 20 20 13 10 11 8 5 4 2 2 3 1 1 1 3 4 2 2 4 3 10 18 16 11 8 6 7 8 5 4 4 2 3 5 8 7 5 8 8 6 3 3 4 4 4 5 3 4 1 1 1 4 2 4 5 2 5 6 8 10 14 15 13 14 17 18 16 17 19 21
16 11 4 9 12 13 8 2 3 3 3 6 7 10 13 10 8 11 14 13 9 6 6 4 2 3 2 2 2 2 0 2 3 3 2 2 3 8 11 11 14 11 8 5 6 5 3 3 4 1 4 4 5 4 2 3 5 4 0 1 3 3 3 5 5 3 1 2 1 4 1 4 5 4 4 8 11 14 16 17 17 15 15 16 16 16 17 19
19 16 5 1 6 14 9 1 3 3 3 7 7 10 14 12 11 13 11 10 9 4 2 2 0 2 4 0 1 2 2 1 2 2 1 1 4 13 15 11 3 6 7 5 5 4 2 1 3 2 2 5 5 3 4 4 3 2 2 2 1 5 5 3 2 3 3 1 3 5 1 5 5 3 4 7 8 9 10 14 17 17 16 15 15 15 14 15
15 10 7 10 5 10 12 4 2 3 3 5 7 9 11 10 12 16 15 14 14 6 1 3 1 2 3 2 1 1 2 3 3 2 1 1 3 11 14 20 16 5 10 13 13 9 3 2 4 5 4 1 2 3 3 1 1 1 1 2 2 2 5 3 2 4 2 1 3 6 4 5 2 2 4 4 5 4 5 8 13 15 16 14 13 14 14 13
8 3 6 12 9 2 7 7 8 5 3 5 6 7 8 7 9 16 16 14 17 12 4 3 2 4 4 4 3 2 2 3 3 2 2 1 2 4 8 18 19 9 7 21 22 12 3 2 5 6 6 6 6 6 6 3 3 1 2 3 4 2 3 5 5 3 4 3 2 3 7 4 2 5 6 4 5 5 4 7 11 14 15 14 13 13 13 12
3 1 4 7 7 6 7 10 12 8 6 7 4 5 9 8 7 11 12 7 9 11 5 1 1 1 2 4 4 3 4 4 3 2 3 3 3 2 6 11 13 14 7 8 12 9 5 2 5 7 5 7 7 6 6 5 4 3 1 2 6 3 4 6 4 4 6 5 1 6 7 9 8 9 8 7 7 6 6 10 14 16 17 15 14 13 13 11
2 3 5 6 4 3 5 9 12 11 10 10 5 4 8 10 6 6 9 9 8 4 3 2 2 5 6 4 2 2 3 5 5 4 3 5 4 3 6 6 6 14 15 8 4 3 6 3 5 6 3 5 5 4 4 5 5 5 4 3 6 4 2 5 5 6 8 6 4 6 7 8 8 8 9 10 11 11 14 18 20 19 19 17 16 15 14 12
3 4 6 7 4 5 8 14 16 12 9 8 5 4 6 8 8 5 4 5 7 3 1 2 4 7 8 7 5 3 1 2 3 4 4 5 6 5 5 4 5 11 11 6 6 5 4 2 4 5 3 4 5 4 4 3 4 3 4 6 5 6 8 5 3 4 6 5 5 8 8 5 6 7 9 14 19 21 20 21 20 19 20 19 17 17 15 15
4 3 7 9 7 8 12 13 12 8 6 6 4 4 6 8 9 8 6 6 5 2 3 4 6 8 7 4 4 3 2 4 4 2 2 2 4 4 3 2 5 9 8 3 4 8 5 3 3 5 3 2 3 2 2 4 6 6 6 7 4 3 5 2 5 7 8 6 7 11 9 3 5 4 5 12 21 22 18 18 19 19 21 20 18 18 18 19
3 2 5 7 5 5 7 8 8 5 4 3 3 5 7 9 11 11 9 9 7 4 4 6 9 10 5 3 7 6 6 8 8 3 0 1 2 0 1 1 2 4 6 3 2 5 4 2 3 4 3 4 3 2 1 2 4 5 6 7 4 1 1 4 5 6 8 8 8 9 8 5 5 2 6 13 19 18 15 17 18 19 21 21 20 19 19 20
5 4 4 3 3 3 4 6 6 4 3 4 7 9 9 10 14 12 6 8 12 11 8 8 8 6 4 6 7 3 4 8 8 6 4 2 3 1 2 6 5 2 2 2 2 2 3 2 3 2 2 5 4 2 1 2 3 2 5 6 5 2 4 4 2 2 7 10 9 7 6 5 6 7 8 9 11 12 15 17 19 21 21 21 20 19 19 19
Wind_Direction
10 8 5 5 5 5 5 4 2 359 357 354 351 349 347 343 339 334 327 321 320 320 327 330 319 305 293 281 271 257 249 262 265 258 226 170 158 156 153 151 165 179 172 165 172 179 180 196 213 228 236 237 246 138 128 144 139 125 81 90 110 146 198 197 190 193 227 258 268 296 350 15 301 345 106 154 152 149 153 150 153 151 142 151 159 156 153 156
13 11 8 8 6 6 5 3 1 358 356 353 349 348 345 340 334 329 323 316 312 313 321 324 315 306 297 287 279 275 270 269 279 285 207 171 170 164 156 156 172 200 193 178 187 188 181 197 217 231 232 226 229 167 145 160 152 140 93 102 151 178 196 195 195 205 206 231 260 292 340 354 325 342 51 149 137 143 142 141 142 130 135 149 153 154 155 158
13 11 9 7 5 5 3 1 1 359 357 354 350 349 346 340 335 328 322 315 308 309 318 321 313 311 302 290 286 291 304 294 296 307 170 176 176 167 155 158 175 197 204 204 204 199 196 206 224 227 220 219 216 182 169 174 169 178 134 119 215 191 191 203 201 204 202 218 254 309 337 339 342 352 15 121 116 133 137 139 140 131 139 150 155 158 158 160
12 10 8 5 3 2 360 360 359 358 358 355 353 353 349 346 345 338 330 320 314 317 326 326 321 320 304 297 296 300 335 336 3 101 131 159 163 167 158 156 169 190 201 211 215 215 207 212 236 222 208 223 217 196 201 185 181 171 161 174 198 180 184 206 202 199 201 223 259 333 337 328 351 13 54 117 113 128 144 144 147 142 145 153 158 160 161 163
10 9 7 4 1 358 357 357 356 357 357 355 355 356 355 356 358 356 353 351 346 346 344 341 336 329 310 306 303 300 4 45 93 101 100 127 154 168 162 156 163 188 198 203 212 212 207 213 229 213 203 234 201 196 227 192 181 90 179 219 160 172 178 190 193 188 193 209 185 347 347 318 347 44 125 127 124 153 150 149 151 148 149 154 159 162 163 165
8 6 5 2 359 356 354 352 352 353 354 355 355 359 1 3 10 14 19 26 25 23 13 6 351 338 329 317 310 288 246 125 125 113 88 90 155 168 163 159 163 186 197 205 210 205 209 206 202 200 202 223 185 195 228 193 184 104 193 165 149 186 184 167 183 182 186 187 172 259 336 328 344 91 213 208 136 146 150 152 151 152 154 155 158 163 165 169
4 3 2 360 357 353 350 348 347 347 348 352 352 358 4 7 17 24 30 36 37 38 30 23 10 356 346 326 320 266 240 214 142 125 83 46 116 165 165 162 168 189 202 214 216 209 215 206 208 208 194 190 194 206 215 197 191 165 167 170 174 194 177 169 179 184 188 180 162 204 333 338 332 356 313 294 131 142 149 152 154 154 156 157 159 162 167 171
1 359 358 357 356 353 349 345 342 341 341 345 347 352 0 4 9 13 20 26 27 31 28 26 19 9 360 341 335 282 259 224 175 166 138 43 55 167 175 174 175 192 205 224 228 226 238 235 237 222 192 167 182 189 196 185 183 196 170 168 171 166 175 180 184 194 195 179 153 174 342 282 249 332 318 264 93 141 153 153 155 156 158 163 165 166 170 172
359 357 355 353 353 351 349 345 339 336 334 335 339 342 350 356 355 354 357 1 4 11 12 12 10 9 8 351 338 308 256 182 173 185 229 304 316 179 187 190 181 194 207 227 237 239 251 260 262 215 184 163 168 179 186 168 197 218 179 160 167 167 177 187 205 209 195 187 174 151 322 231 221 329 278 262 52 138 155 155 156 158 162 168 171 172 172 174
356 355 354 351 350 348 347 346 339 333 328 325 328 330 337 343 346 344 336 337 341 346 351 355 357 360 358 347 339 294 173 137 137 168 264 286 246 188 194 196 187 195 202 223 247 256 274 301 321 246 168 162 170 181 186 173 189 193 165 154 164 174 177 185 211 214 198 199 196 175 213 226 203 232 258 130 98 143 155 155 160 161 165 171 173 173 174 178
355 353 351 349 348 346 344 343 341 336 327 319 318 318 323 328 333 335 330 324 320 325 331 334 341 344 345 335 273 201 166 147 124 349 321 308 250 201 197 196 193 195 202 223 244 281 303 306 322 328 149 164 174 177 194 201 170 166 152 137 125 123 179 194 208 211 201 207 204 190 201 243 198 209 231 94 107 165 162 158 163 164 166 171 172 174 177 181
356 352 350 347 345 344 342 340 339 337 330 318 312 308 310 315 318 321 324 322 315 315 317 322 330 337 338 318 261 201 151 146 172 322 315 307 299 193 192 199 197 197 212 232 243 295 308 303 324 343 123 166 157 156 212 206 160 154 144 114 80 48 303 216 211 207 196 210 201 179 79 293 238 222 222 124 97 178 165 161 162 164 168 171 173 176 179 182
357 355 351 348 344 342 340 338 336 335 331 321 311 304 299 302 307 309 314 317 316 314 312 317 321 329 330 306 235 170 182 199 219 261 281 280 291 185 179 195 199 195 212 244 258 292 305 304 316 321 322 171 156 140 196 171 140 141 135 88 96 33 323 221 202 187 188 222 196 171 111 256 238 236 223 164 157 156 153 165 168 164 167 170 172 176 179 185
357 355 352 349 346 342 339 337 335 333 330 324 314 305 297 294 298 301 306 310 315 314 312 316 315 325 323 287 162 159 192 206 222 232 244 262 278 241 184 190 203 198 210 253 264 276 296 299 299 302 304 239 187 159 138 131 133 140 122 40 109 84 305 230 181 160 172 234 195 162 114 240 235 235 215 150 155 144 146 173 182 166 166 170 172 176 180 185
356 354 351 348 346 343 339 336 333 333 330 323 316 308 298 293 295 298 301 302 307 311 311 314 310 319 320 286 209 174 190 203 222 228 230 251 272 258 224 208 214 216 226 253 259 267 278 285 288 288 287 267 194 152 129 112 187 145 151 211 178 187 280 294 186 171 169 220 186 143 271 249 255 230 204 158 158 146 151 178 177 168 172 175 176 176 177 180
353 352 349 347 344 343 340 336 333 332 331 324 317 311 301 295 297 297 297 298 300 304 307 307 301 311 319 282 232 206 205 213 223 222 221 245 265 253 236 229 235 236 238 249 264 274 273 277 278 272 270 259 163 141 128 128 262 268 205 206 181 186 228 297 222 193 176 140 178 165 188 252 279 224 190 166 167 158 162 177 167 174 178 177 178 177 175 176
349 349 347 345 342 341 339 336 332 331 333 328 315 308 303 298 301 298 292 292 291 294 299 295 289 297 287 248 241 230 217 220 223 218 218 237 249 242 235 238 244 241 238 244 256 265 265 264 264 264 264 229 135 115 116 216 240 253 237 251 214 186 183 179 223 204 182 153 188 194 214 247 278 219 178 169 169 168 175 175 161 173 174 175 179 179 179 179
345 345 345 343 341 339 337 335 333 330 333 331 318 309 304 303 309 304 290 288 288 291 295 275 260 299 275 234 251 277 243 223 222 218 213 222 227 230 234 240 252 243 232 236 240 241 245 252 251 285 315 316 124 123 159 225 209 190 215 242 232 182 183 192 183 188 180 175 190 189 231 253 273 239 190 177 168 173 181 166 158 175 185 180 179 178 180 182
341 342 343 341 340 338 335 333 331 330 333 336 324 309 306 315 317 313 322 313 292 289 297 254 218 234 273 255 277 302 281 235 225 220 202 205 216 222 229 241 251 235 217 219 235 222 213 244 280 304 295 274 240 181 205 226 189 188 208 193 179 179 205 212 178 176 171 164 196 190 211 242 246 232 206 188 175 177 179 162 165 183 191 178 178 181 181 181
338 340 341 340 340 338 335 330 328 329 331 337 335 318 318 338 333 329 336 316 291 283 284 270 254 254 265 272 284 295 268 207 206 207 189 190 209 216 221 235 245 233 208 192 225 213 188 211 261 227 230 241 243 225 224 235 213 205 208 171 183 190 207 216 184 178 162 153 217 205 207 241 232 220 204 189 182 181 176 165 172 182 175 172 179 183 183 185
336 338 339 339 339 338 334 328 325 323 324 334 349 356 1 356 341 327 327 311 298 291 278 274 269 263 266 273 276 268 210 186 193 194 183 190 199 205 211 207 218 261 245 227 232 222 173 200 241 228 226 229 238 239 234 248 242 215 195 165 185 196 212 214 178 171 162 157 229 203 202 251 242 212 199 185 177 191 187 173 176 180 172 177 185 182 182 187
334 336 337 336 338 339 335 328 318 312 316 325 356 15 7 355 337 326 326 304 298 294 278 275 270 263 265 266 265 261 250 217 196 189 183 192 193 193 196 179 180 232 250 246 247 276 198 231 242 233 234 240 253 258 249 248 228 198 164 147 180 203 204 236 161 161 163 170 236 184 187 252 263 200 191 183 176 195 200 185 182 184 179 183 188 182 179 182
332 334 335 334 336 337 336 327 308 303 308 307 353 12 13 9 0 340 327 291 295 294 276 261 254 253 254 253 255 255 249 234 203 189 180 185 192 195 196 174 187 215 231 236 214 228 251 244 242 235 240 252 265 270 260 244 217 183 119 130 199 201 163 203 194 167 167 172 167 153 172 285 316 155 175 177 171 175 189 193 194 196 192 186 187 184 179 181
332 333 333 333 332 335 338 325 296 289 291 297 0 17 25 22 14 351 328 282 292 294 281 261 245 241 238 240 243 234 229 222 208 191 182 185 188 192 206 189 183 224 231 224 206 214 238 248 247 231 234 239 250 268 264 141 340 293 178 160 180 191 192 197 152 140 152 207 122 116 78 320 296 176 196 155 145 154 168 183 191 201 199 188 185 184 182 185
332 332 333 332 329 333 341 327 291 275 271 288 345 9 25 14 7 356 334 299 287 282 289 270 231 230 225 230 241 227 219 214 209 192 186 193 187 181 209 199 180 225 235 232 219 222 245 256 258 245 243 239 230 252 240 120 5 320 251 210 203 199 197 143 113 114 110 254 225 131 83 297 275 222 220 216 136 162 171 183 190 195 195 192 187 184 187 191
332 331 331 329 327 330 339 336 307 284 273 281 291 295 345 340 347 349 341 11 313 265 268 205 197 213 208 223 233 214 205 217 216 202 190 194 193 186 196 199 190 220 227 225 218 221 241 250 253 240 241 242 213 242 228 148 87 334 259 224 239 241 196 136 132 132 145 213 226 163 127 257 279 262 228 202 168 191 206 205 201 195 192 194 189 185 192 196
330 329 328 326 325 327 331 330 316 302 289 274 255 257 294 308 316 323 351 31 304 241 172 176 185 186 189 210 207 179 146 222 203 200 192 188 195 194 192 218 235 241 231 159 233 245 232 241 244 225 219 222 203 253 238 161 121 241 252 195 191 252 174 145 145 151 178 182 200 186 148 116 264 258 225 174 169 207 226 226 219 207 199 196 191 191 196 197
328 327 324 320 322 321 320 320 319 315 294 267 257 255 276 302 296 295 77 37 267 203 147 177 186 188 187 192 188 180 190 164 155 197 193 185 190 188 192 225 219 248 259 81 263 259 233 233 234 208 203 225 220 225 216 157 133 241 255 104 88 144 140 140 149 169 177 119 164 230 180 116 259 276 240 147 168 218 224 221 220 211 205 199 194 197 200 196
328 327 322 316 315 313 309 312 318 313 280 257 259 254 257 276 289 56 85 96 258 214 163 166 162 185 181 172 181 191 206 168 146 187 184 182 191 188 206 225 215 256 256 191 223 262 259 254 242 181 166 230 231 231 195 154 186 251 249 78 61 87 116 120 143 157 100 106 204 233 192 151 273 280 125 135 199 229 226 221 210 207 205 199 197 201 206 204
329 327 321 313 310 307 302 306 319 313 280 261 257 242 231 221 102 62 88 235 272 270 138 153 171 175 167 159 182 199 203 172 139 158 173 186 195 199 221 225 217 253 280 234 232 255 261 270 274 215 188 208 218 255 218 175 198 226 60 76 55 42 84 79 105 115 80 78 242 232 190 138 327 270 211 173 214 212 203 210 202 200 202 197 197 202 209 214
331 328 320 312 306 299 295 301 315 297 272 269 245 183 162 153 78 98 197 264 301 253 126 168 197 164 162 167 185 197 194 134 137 147 171 195 193 209 237 245 235 279 331 310 285 287 294 292 288 236 218 201 124 297 294 251 189 126 73 73 53 357 24 30 358 45 79 255 260 244 182 111 105 262 240 220 239 219 186 196 189 188 196 193 194 201 209 213
333 327 319 310 298 289 288 298 303 274 244 201 160 152 139 95 35 188 231 328 323 212 171 201 222 172 170 174 176 188 177 149 158 159 175 181 175 206 200 195 191 113 316 275 290 319 311 278 264 238 231 203 128 290 310 348 26 92 92 82 74 4 5 13 330 0 121 244 262 243 103 91 229 252 234 217 237 237 201 194 183 180 185 183 188 197 206 210
332 327 319 304 290 285 285 293 283 251 220 173 159 144 115 101 229 214 229 292 242 232 26 46 248 186 164 170 191 197 189 170 173 175 179 173 171 208 226 213 175 156 222 225 300 334 308 289 272 239 244 200 147 151 286 331 21 123 140 121 112 101 70 282 285 337 274 267 286 295 92 87 287 281 230 201 216 221 203 191 184 182 181 180 184 189 198 205
331 328 319 302 290 287 285 280 252 227 214 200 176 99 111 174 238 215 213 239 261 319 351 359 258 211 177 188 197 180 187 204 178 168 167 165 170 212 239 235 195 174 170 174 207 201 247 294 259 204 216 183 161 170 174 173 169 182 166 131 132 145 142 194 195 168 249 268 305 329 57 150 200 254 238 199 194 196 179 178 179 179 180 179 179 178 188 199
332 330 319 304 294 287 277 256 229 214 204 190 128 87 163 208 239 206 218 240 274 313 307 315 259 208 196 211 216 188 187 200 180 165 165 173 182 201 207 218 210 189 146 161 226 200 203 257 248 214 187 167 174 199 172 136 90 277 133 102 137 179 145 154 183 179 195 192 335 334 324 204 198 261 291 130 150 154 145 156 163 168 175 176 177 180 188 195
335 336 328 315 299 271 249 236 214 199 191 171 109 153 207 221 217 199 247 272 338 344 329 331 307 186 186 214 233 213 202 188 166 166 185 189 195 203 200 211 204 189 167 171 218 216 192 270 271 202 177 175 178 187 171 136 142 321 78 127 211 175 128 114 268 288 91 110 259 272 94 318 346 319 340 67 115 128 130 148 158 165 171 175 182 188 189 191
343 349 353 10 77 147 128 143 181 182 178 156 130 214 225 259 232 235 312 323 332 348 6 339 309 201 191 205 222 214 198 169 166 179 198 197 210 207 205 221 202 191 191 182 199 233 175 278 286 189 177 207 189 175 169 155 148 119 136 196 190 65 77 92 103 332 42 123 267 32 125 199 130 243 310 84 118 143 154 163 164 167 171 177 186 192 194 193
346 350 359 57 94 119 75 95 157 164 157 136 219 247 239 261 265 299 312 315 326 339 355 294 255 266 166 188 265 242 187 168 190 194 180 187 231 210 196 213 209 204 202 185 182 253 163 236 292 218 176 225 200 149 125 266 172 133 160 174 108 83 320 58 154 242 42 151 321 9 274 216 174 206 212 161 155 165 171 176 171 172 179 184 189 196 199 199
343 348 5 60 77 61 57 137 154 150 132 117 228 247 254 261 280 288 286 287 289 287 288 241 221 302 51 110 326 287 192 169 205 211 171 186 234 217 197 198 207 217 207 177 168 235 152 147 296 258 174 158 12 82 144 248 272 104 136 156 102 145 170 172 177 163 150 174 144 109 252 248 222 214 196 178 174 170 170 177 176 176 185 192 195 198 200 199
344 349 14 73 117 73 117 147 147 131 112 191 208 236 272 276 285 281 279 278 267 250 262 250 249 281 265 124 125 263 242 105 190 251 252 197 221 235 215 202 198 215 201 174 172 188 115 140 248 286 211 137 127 234 182 186 198 144 168 197 191 125 120 152 199 150 142 149 141 152 215 263 256 216 182 179 179 177 172 165 160 162 171 185 194 196 198 199
353 349 13 149 149 142 146 147 147 143 153 221 229 244 269 273 280 282 280 277 268 256 254 259 267 261 236 101 200 245 288 79 179 229 234 213 223 235 224 213 197 190 180 169 182 178 143 154 160 279 262 167 211 226 189 171 169 165 184 196 173 141 112 117 282 290 140 131 147 152 181 258 263 211 176 177 179 182 166 150 152 161 162 171 183 189 196 200
358 344 163 153 154 165 174 165 218 218 194 240 245 245 263 269 269 274 278 276 270 255 244 247 263 254 206 183 192 169 316 262 210 217 231 236 222 240 239 220 198 168 153 171 202 191 164 130 127 198 226 213 239 239 180 162 161 155 172 188 163 141 120 134 209 266 338 51 103 113 133 254 268 239 177 167 169 171 161 153 158 166 166 169 176 184 192 198
344 320 234 175 181 189 192 259 278 234 237 249 249 256 257 256 262 269 276 276 269 254 238 229 264 272 249 194 171 104 52 248 229 224 272 322 279 298 288 237 201 178 154 165 201 192 162 128 133 249 291 299 299 318 24 109 116 106 88 217 162 162 139 143 174 175 66 349 46 75 56 260 273 263 182 155 160 166 165 163 163 165 169 173 178 182 186 193
334 315 289 177 209 203 197 246 252 231 266 258 257 264 256 249 253 258 264 266 258 256 256 238 211 277 269 220 132 192 195 221 251 259 295 34 308 310 330 352 309 207 168 164 174 159 173 167 117 108 353 339 342 2 358 358 52 106 218 257 148 144 122 96 104 91 57 268 143 109 207 253 265 249 165 141 150 166 173 170 166 167 169 172 178 180 179 186
338 318 318 354 341 210 208 233 272 264 298 295 293 287 271 261 257 255 255 256 254 250 231 249 283 346 287 318 22 250 205 196 225 296 293 173 306 308 342 5 351 287 174 155 143 133 145 133 104 127 152 194 209 199 232 292 56 148 274 335 335 139 125 113 82 77 76 224 120 125 195 252 290 166 164 152 148 165 172 164 170 174 173 174 180 183 185 191
358 340 316 338 352 259 248 307 353 355 326 328 315 296 290 285 279 279 273 254 247 244 224 247 308 12 333 324 351 337 283 233 231 304 303 255 274 294 357 7 352 335 161 151 140 128 112 110 123 139 156 179 192 210 219 160 114 146 354 345 298 303 96 109 101 118 167 145 96 188 185 170 169 178 182 181 167 173 175 171 181 182 177 180 185 186 195 200
4 7 357 339 336 355 347 347 3 357 315 320 313 285 299 299 302 309 305 289 256 243 227 276 326 353 322 328 339 324 318 312 305 305 288 275 253 274 11 9 360 4 23 144 144 122 95 112 152 147 168 199 199 210 206 146 134 175 157 292 283 300 105 124 145 179 156 116 264 243 178 156 187 194 183 185 182 181 187 185 188 186 183 188 192 194 200 204
336 323 4 0 313 350 5 330 328 324 313 316 297 263 300 300 303 318 314 333 340 290 247 342 290 236 232 235 238 264 304 314 319 334 334 326 330 350 359 357 11 19 16 358 339 88 117 161 183 162 176 192 188 235 222 162 161 172 160 227 272 289 202 187 204 187 153 141 207 210 159 164 203 200 183 188 183 180 187 188 188 188 188 191 196 199 202 204
340 311 326 349 331 306 306 300 306 312 312 320 302 265 296 300 303 313 291 320 350 347 307 298 269 254 242 227 210 210 251 289 334 3 354 346 5 14 0 346 347 6 22 17 343 18 89 194 199 153 140 167 180 246 252 185 172 168 190 217 232 266 261 244 206 158 130 122 149 143 137 174 213 202 199 198 185 178 181 184 187 190 190 192 199 202 204 208
1 347 329 339 324 297 299 301 310 315 308 314 289 272 304 311 321 336 321 303 309 319 348 336 311 295 269 221 140 128 122 114 109 53 338 8 29 25 17 4 325 340 11 44 354 14 36 284 237 119 94 261 221 197 212 213 200 193 225 240 225 263 273 208 133 121 102 98 122 126 128 187 239 216 182 175 170 166 169 179 187 190 188 192 200 203 205 211
319 305 317 329 309 294 311 312 314 313 300 300 293 311 328 330 340 346 325 316 337 9 17 351 331 320 308 81 90 119 143 130 129 133 60 83 60 133 189 294 297 329 356 18 4 21 42 317 320 74 82 274 253 119 87 243 203 200 240 252 236 205 173 167 157 134 129 138 136 125 137 190 221 163 117 141 152 155 165 177 181 183 187 191 198 203 209 217
312 271 248 290 286 292 323 309 301 296 293 336 344 340 332 328 343 352 336 332 349 2 19 9 345 342 12 46 52 77 122 111 103 76 53 21 340 340 267 281 271 248 350 16 30 32 77 48 340 80 132 271 263 171 93 47 54 294 253 224 202 140 119 136 123 124 145 145 145 163 185 190 168 136 120 133 145 154 168 177 179 182 188 195 202 209 215 221